Location: Newark
(48.5156°N, 1.8989°W)
Time: 02:55:47
(UTC+00:00)

Transit 4A - Pass Details

Date: 27 November 2019
Orbit: 870 x 975 km, 66.8° (Epoch: 11 December)

Event Time Altitude Azimuth Distance (km) Brightness Sun altitude
Exits shadow 06:34:42 12° 288° (WNW) 2,424 9.4 -9.4°
Maximum altitude 06:37:37 16° 256° (WSW) 2,107 9.3 -8.9°
Drops below altitude 10° 06:41:03 10° 219° (SW) 2,513 10.0 -8.4°
Sets 06:44:26 0° 199° (SSW) 3,443 10.9 -7.9°
